China Lake Naws (Armitage Field) Airport
KNID : rendu visible

Aérodrome :











RETROUVEZ-NOUS SUR...

 
LOGIN :

S'inscrire | Disclaimer

   EN    FR    IT 

 









Légende :    VFR   VFR Marginal   IFR   IFR Intensif   IFR Très Intensif
Visi : 
Plafond : 
>= 8 km
>= 3000ft
5 à 8 km
1000 à 3000 ft
1500m à 5 km
500 à 1000 ft
800 à 1500m
200 à 500 ft
< 800m
< 200 ft
Symboles :   Orages  Brouillard  Fortes neiges  Fortes précipitations  Vent > 20 kt






- Altitude de l'aérodrome : 2283 ft


KNID - China Lake Naws (Armitage Field)

DERNIER METAR :
  • 290556Z AUTO 21015KT 10SM CLR 12/M02 A2999 RMK AO2 SLP156 T01221022 10167 20122 50000

METARs EXPIRÉS :
  • 290456Z AUTO 21008KT 10SM CLR 13/M02 A3000 RMK AO2 SLP159 T01281022
  • 290356Z AUTO 25004KT 10SM CLR 13/00 A3000 RMK AO2 SLP159 T01330000

Prévision TAF périmée.



MET'MAP, la Météo Aéronautique d'un coup d'oeil ! - Copyright ORBIFLY Décembre 2007 - Disclaimer

ORBIFLY MET'MAP TEAM :

Programmation & Développement : Alexandra Zaïnal
Sur une idée originale de : Baudouin d'Aumeries
Assistance à la programmation : Marc-Olivier Méhu
Soutien technique & logistique : Manuel Goepfert

Contact : metmap@orbifly.com




SOURCES & CREDITS :

   NOAA       Earth
Advisory